#timestamp,LO_Frequency,Hit,StdDev 
1609002015.2,286046990.1,N
1609002035.0,286046991.4,N
1609002035.9,286046991.4,N
1609002055.8,286046988.9,N
1609002075.6,286046989.4,N
1609002095.4,286046987.2,N
1609002115.3,286046987.7,N
1609002135.1,286046985.3,N
1609002155.8,286046986.1,N
1609002175.7,286046985.6,N
1609002195.5,286046983.8,N
1609002215.4,286046984.0,N
1609002235.2,286046984.8,N
1609002255.0,286046983.0,N
1609002255.9,286046983.0,N
1609002275.8,286046981.0,N
1609002295.6,286046983.6,N
1609002315.4,286046981.3,N
1609002335.3,286046980.1,Y
1609002355.1,286046991.4,P
1609002375.9,286046989.2,P
1609002395.7,286046987.0,P
1609002415.5,286046985.7,Y
1609002435.4,286046999.1,P
1609002455.2,286046997.7,N
1609002475.1,286046995.4,N
1609002476.0,286046995.4,N
1609002495.8,286046995.4,N
1609002515.6,286046995.8,N
1609002535.5,286046993.3,N
1609002555.3,286046993.7,N
1609002575.1,286046991.7,Y
1609002595.9,286046996.6,P
1609002615.7,286046996.8,P
1609002635.6,286046997.5,P
1609002655.4,286046995.1,Y
1609002675.2,286046998.6,P
1609002695.1,286046998.8,N
1609002696.0,286046998.8,N
1609002715.8,286046999.2,N
1609002735.7,286046996.8,Y
1609002755.5,286046998.5,P
1609002775.3,286046998.4,P
1609002795.2,286046999.0,P
1609002815.0,286046999.4,N
1609002815.9,286046999.4,N
1609002835.8,286046999.5,N
1609002855.6,286046999.6,N
1609002875.4,286046997.1,Y
1609002895.3,286046998.7,P
1609002915.1,286046996.7,P
1609002935.8,286046999.2,N
1609002955.7,286046999.2,N
1609002975.5,286046999.4,N
1609002995.4,286046999.1,N
1609003015.2,286046999.4,N
1609003035.0,286046999.2,N
1609003035.9,286046999.2,N
1609003055.8,286046999.4,N
1609003075.6,286046999.0,N
1609003095.4,286046999.0,N
1609003115.3,286046999.5,N
1609003135.1,286046999.5,N
1609003155.9,286046999.2,N
1609003175.7,286046996.6,Y
1609003195.5,286046998.1,P
1609003215.4,286047001.1,N
1609003235.2,286046998.5,N
1609003255.1,286046998.6,N
1609003256.0,286046998.6,N
1609003275.8,286047001.2,N
1609003295.6,286047001.0,N
1609003315.5,286047000.4,N
1609003335.3,286047000.7,N
1609003355.2,286047000.2,N
1609003375.9,286046999.8,N
1609003395.7,286047000.2,N
1609003415.6,286047002.6,N
1609003435.4,286047002.6,N
1609003455.2,286047002.2,N
1609003475.1,286047001.5,N
1609003476.0,286047001.5,N
1609003495.8,286047001.5,N
1609003515.7,286047002.0,N
1609003535.5,286047001.4,N
1609003555.3,286047004.2,Y
1609003575.2,286047002.5,P
1609003595.0,286047002.5,N
1609003595.9,286047002.5,N
1609003615.7,286047002.0,N
1609003635.6,286047001.7,N
1609003655.4,286047003.2,Y
1609003675.3,286047002.6,P
1609003695.1,286047001.8,P
1609003715.8,286047002.0,P
1609003735.7,286047001.9,Y
1609003755.5,286047000.0,P
1609003775.4,286047000.1,N
1609003795.2,286047002.8,N
1609003815.0,286047002.3,N
1609003815.9,286047002.3,N
1609003835.8,286047000.2,N
1609003855.6,286047002.4,N
1609003875.5,286047002.7,N
1609003895.3,286047002.0,N
1609003915.1,286047002.1,N
1609003935.9,286047002.0,N
1609003955.7,286047001.5,N
1609003975.6,286047004.1,Y
1609003995.4,286047002.8,P
1609004015.2,286046999.7,N
1609004065.1,286047002.3,E
1609004075.0,286047002.8,N
1609004075.9,286047002.8,P
1609004095.8,286047000.7,P
1609004115.6,286046999.8,N
1609004135.4,286047000.2,N
1609004155.3,286046999.9,N
1609004175.1,286046999.8,N
1609004195.9,286047002.4,N
1609004215.7,286047002.8,N
1609004235.5,286047002.2,N
1609004255.4,286047002.5,N
1609004275.2,286047002.6,N
1609004295.0,286047002.1,N
1609004295.9,286047002.1,N
1609004315.8,286047001.8,N
1609004335.6,286047001.3,N
1609004355.5,286047004.1,Y
1609004375.3,286047001.9,P
1609004395.1,286047001.9,P
1609004415.9,286047001.4,P
1609004435.7,286047001.7,Y
1609004455.6,286047002.5,P
1609004475.4,286047002.4,P
1609004495.2,286047002.4,P
1609004515.1,286047002.1,Y
1609004516.0,286047002.1,P
1609004535.8,286047000.0,N
1609004555.7,286047000.3,N
1609004575.5,286047000.2,N
1609004595.3,286047000.2,N
1609004615.2,286046999.7,N
1609004635.9,286047002.8,N
1609004655.7,286047002.4,N
1609004675.6,286047002.8,N
1609004695.4,286047002.4,N
1609004715.2,286047002.7,N
1609004735.1,286047002.3,N
1609004736.0,286047002.3,N
1609004755.8,286047001.5,N
1609004775.7,286047002.0,N
1609004795.5,286047004.4,Y
1609004815.3,286047002.8,P
1609004835.2,286047002.7,P
1609004855.0,286047002.3,P
1609004855.9,286047002.3,Y
1609004875.8,286046998.8,P
1609004895.6,286047000.8,N
1609004915.4,286047001.0,N
1609004935.3,286047000.5,N
1609004955.1,286047000.9,N
1609004975.8,286047000.3,N
1609004995.7,286047001.0,N
1609005015.5,286046999.7,N
1609005035.4,286047000.0,N
1609005055.2,286047002.8,Y
1609005075.0,286047000.2,P
1609005075.9,286047000.2,N
1609005095.8,286047000.4,N
1609005115.6,286047002.8,Y
1609005135.5,286047000.7,P
1609005155.3,286047000.1,N
1609005175.1,286047000.2,N
1609005195.9,286046999.8,N
1609005215.7,286047000.0,N
1609005235.5,286047000.1,N
1609005255.4,286047002.1,Y
1609005275.2,286047002.7,P
1609005295.1,286047002.7,N
1609005296.0,286047002.7,N
1609005315.8,286047002.5,N
1609005335.6,286047002.2,N
1609005355.5,286047001.3,N
1609005375.3,286047002.0,N
1609005395.1,286047004.4,Y
1609005415.9,286047002.4,P
1609005435.7,286047002.7,P
1609005455.6,286047002.5,P
1609005475.4,286047002.0,Y
1609005495.2,286047001.1,P
1609005515.1,286047000.7,N
1609005516.0,286047000.7,N
1609005535.8,286047000.7,N
1609005555.7,286047000.9,N
1609005575.5,286047000.4,N
1609005595.3,286047000.3,N
